This demonstration page uses our WeatherBlox Daily Observations layout. Learn more.

Left ArrowRight Arrow

Hourly Observations for February 28, 2020

Temp ( °F °C ) Dew Point ( °F °C ) Humidity (%) Winds ( mph kmh ) Pressure ( in mb ) Visibility ( mi km ) Precip ( " mm )
12:52 am 00:52 Cloudy 35 1.7 33 0.6 93 93 NNW 12 19 30.18 1022 10 16 0.01 0.25
1:15 am 01:15 Mostly Cloudy 33 0.6 32 0 96 96 NW 9 15 30.22 1023 9 14 0.00 0.00
1:52 am 01:52 Partly Cloudy with Mist and Fog 32 0 32 0 100 100 NW 6 9 30.19 1022 6 10 0.00 0.00
2:00 am 02:00 Mostly Cloudy with Mist and Fog 33 0.6 32 0 96 96 NW 9 15 30.23 1024 6 10 0.00 0.00
2:29 am 02:29 Cloudy with Mist and Fog 33 0.6 32 0 96 96 WNW 7 11 30.23 1024 6 10 0.00 0.00
2:45 am 02:45 Cloudy 33 0.6 32 0 96 96 WNW 9 15 30.23 1024 7 11 0.00 0.00
2:52 am 02:52 Cloudy 33 0.6 32 0 96 96 WNW 7 11 30.19 1022 7 11 0.00 0.00
3:30 am 03:30 Cloudy with Mist and Fog 32 0 31 -0.6 96 96 W 8 13 30.22 1023 5 8 0.00 0.00
3:49 am 03:49 Cloudy with Mist and Fog 32 0 32 0 100 100 WNW 7 11 30.21 1023 2 3 0.00 0.00
3:52 am 03:52 Cloudy with Mist and Fog 32 0 32 0 100 100 WNW 6 9 30.17 1022 2 3 0.00 0.00
4:21 am 04:21 Cloudy with Mist and Fog 32 0 32 0 100 100 WNW 7 11 30.21 1023 2 2 0.00 0.00
4:42 am 04:42 Cloudy with Mist and Fog 32 0 32 0 100 100 W 12 19 30.21 1023 3 5 0.00 0.00
4:48 am 04:48 Cloudy with Mist and Fog 32 0 32 0 100 100 W 10 17 30.22 1023 2 2 0.00 0.00
4:52 am 04:52 Mostly Cloudy with Mist and Fog 32 0 32 0 100 100 W 9 15 30.18 1022 1 1 0.00 0.00
5:17 am 05:17 Cloudy with Mist and Fog 32 0 32 0 100 100 W 9 15 30.21 1023 2 3 0.00 0.00
5:25 am 05:25 Cloudy with Mist and Fog 32 0 32 0 100 100 W 6 9 30.21 1023 5 8 0.00 0.00
5:52 am 05:52 Cloudy with Mist and Fog 32 0 31 -0.6 96 96 W 10 17 30.19 1022 3 4 0.00 0.00
6:01 am 06:01 Cloudy with Mist and Fog 32 0 31 -0.6 96 96 W 12 19 30.23 1024 1 2 0.00 0.00
6:20 am 06:20 Mostly Cloudy with Mist and Fog 32 0 32 0 100 100 W 9 15 30.23 1024 1 1 0.00 0.00
6:38 am 06:38 Cloudy with Mist and Fog 32 0 32 0 100 100 W 6 9 30.23 1024 1 2 0.00 0.00
6:46 am 06:46 Cloudy with Mist and Fog 32 0 32 0 100 100 W 9 15 30.23 1024 3 5 0.00 0.00
6:52 am 06:52 Cloudy with Mist and Fog 32 0 32 0 100 100 W 8 13 30.19 1023 3 5 0.00 0.00
7:00 am 07:00 Cloudy with Mist and Fog 32 0 32 0 100 100 W 10 17 30.24 1024 3 4 0.00 0.00
7:07 am 07:07 Cloudy with Mist and Fog 32 0 32 0 100 100 W 9 15 30.24 1024 4 6 0.00 0.00
7:52 am 07:52 Cloudy 33 0.6 32 0 96 96 WSW 9 15 30.20 1023 7 11 0.00 0.00
8:16 am 08:16 Mostly Cloudy 34 1.1 33 0.6 97 97 WSW 12 19 30.25 1024 8 13 0.00 0.00
8:52 am 08:52 Mostly Cloudy 35 1.7 33 0.6 93 93 W 12 19 30.22 1023 10 16 0.00 0.00
9:19 am 09:19 Partly Cloudy 37 2.8 35 1.7 93 93 W 12 19 30.24 1024 10 16 0.00 0.00
9:52 am 09:52 Partly Cloudy 40 4.4 35 1.7 83 83 W 15 24 30.22 1023 10 16 0.00 0.00
10:52 am 10:52 Mostly Sunny 45 7.2 35 1.7 68 68 W 14 22 30.19 1022 10 16 0.00 0.00
11:52 am 11:52 Partly Cloudy 49 9.4 34 1.1 56 56 W 17 28 30.18 1022 10 16 0.00 0.00
12:52 pm 12:52 Partly Cloudy 50 10 33 0.6 52 52 W 20 31 30.16 1021 10 16 0.00 0.00
1:52 pm 13:52 Mostly Sunny 52 11.1 32 0 47 47 NW 21 33 30.15 1021 10 16 0.00 0.00
2:52 pm 14:52 Sunny 52 11.1 31 -0.6 45 45 NW 24 39 30.15 1021 10 16 0.00 0.00
3:52 pm 15:52 Mostly Cloudy 53 11.7 28 -2.2 38 38 WNW 21 33 30.15 1021 10 16 0.00 0.00
4:52 pm 16:52 Partly Cloudy 52 11.1 28 -2.2 40 40 WNW 15 24 30.16 1021 10 16 0.00 0.00
5:52 pm 17:52 Cloudy 51 10.6 29 -1.7 43 43 WNW 6 9 30.17 1022 10 16 0.00 0.00
6:52 pm 18:52 Mostly Cloudy 48 8.9 30 -1.1 50 50 WNW 5 7 30.19 1022 10 16 0.00 0.00
7:52 pm 19:52 Mostly Clear 44 6.7 30 -1.1 58 58 Calm 30.19 1023 10 16 0.00 0.00
8:52 pm 20:52 Clear 35 1.7 28 -2.2 76 76 Calm 30.20 1023 10 16 0.00 0.00
9:52 pm 21:52 Clear 34 1.1 28 -2.2 79 79 SW 3 6 30.22 1023 10 16 0.00 0.00
10:52 pm 22:52 Clear 33 0.6 27 -2.8 78 78 Calm 30.22 1024 10 16 0.00 0.00
11:52 pm 23:52 Clear 33 0.6 27 -2.8 78 78 Calm 30.22 1024 10 16 0.00 0.00

Powered by AerisWeather